Terminal Aerodrome Forecast
Issued by NWS

Home | Current Version | Previous Version | Text Only | Print | Product List | Glossary Off
Versions: 1 2 3 4 5 6 7 8 9 10 11 12 13 14 15 16 17 18 19 20 21 22 23 24 25 26 27 28 29 30 31 32 33 34 35 36 37 38 39 40 41 42 43 44

000
FTUS43 KLOT 051334 AAA
TAFMDW
TAF AMD
KMDW 051334Z 0514/0612 03010KT 4SM -SHRA BR BKN006 BKN015 OVC080
     FM051700 07011KT P6SM BKN010 BKN050
     FM052100 07010KT P6SM VCSH BKN015 BKN050
     FM060300 08007KT 3SM BR BKN015 BKN050=

USA.gov is the U.S. government's official web portal to all federal, state and local government web resources and services.